TimeEDT,TemperatureF,Dew PointF,Humidity,Sea Level PressureIn,VisibilityMPH,Wind Direction,Wind SpeedMPH,Gust SpeedMPH,PrecipitationIn,Events,Conditions,WindDirDegrees,DateUTC
12:53 AM,75.0,66.9,76,30.13,10.0,NNE,6.9,-,N/A,,Scattered Clouds,30,2012-09-12 04:53:00
1:53 AM,73.9,68.0,82,30.12,10.0,NNE,6.9,-,N/A,,Clear,20,2012-09-12 05:53:00
2:53 AM,73.4,69.8,88,30.10,10.0,NNE,6.9,-,N/A,,Partly Cloudy,20,2012-09-12 06:53:00
3:53 AM,73.4,69.8,88,30.09,10.0,NNE,6.9,-,N/A,,Clear,20,2012-09-12 07:53:00
4:53 AM,73.4,69.8,88,30.09,10.0,NNE,8.1,-,N/A,,Clear,30,2012-09-12 08:53:00
5:53 AM,73.4,71.6,94,30.09,10.0,NNE,4.6,-,N/A,,Clear,20,2012-09-12 09:53:00
6:53 AM,71.6,71.6,100,30.11,10.0,North,6.9,-,N/A,,Partly Cloudy,360,2012-09-12 10:53:00
7:53 AM,73.4,71.6,94,30.12,10.0,North,5.8,-,N/A,,Partly Cloudy,360,2012-09-12 11:53:00
8:53 AM,75.2,73.4,94,30.13,10.0,East,6.9,-,N/A,Rain,Light Rain,80,2012-09-12 12:53:00
9:53 AM,79.0,73.0,82,30.14,10.0,ENE,4.6,-,0.00,,Mostly Cloudy,60,2012-09-12 13:53:00
10:53 AM,82.9,72.0,69,30.14,10.0,East,13.8,19.6,N/A,,Mostly Cloudy,80,2012-09-12 14:53:00
11:53 AM,84.0,70.0,63,30.14,10.0,ENE,17.3,25.3,0.00,,Mostly Cloudy,70,2012-09-12 15:53:00
12:53 PM,87.1,69.1,55,30.14,10.0,East,15.0,-,N/A,,Mostly Cloudy,90,2012-09-12 16:53:00
1:53 PM,84.9,68.0,57,30.12,10.0,ENE,16.1,-,N/A,,Mostly Cloudy,70,2012-09-12 17:53:00
2:53 PM,87.1,66.9,51,30.10,10.0,ENE,17.3,-,N/A,,Mostly Cloudy,60,2012-09-12 18:53:00
3:53 PM,86.0,66.9,53,30.09,10.0,ENE,17.3,26.5,N/A,,Mostly Cloudy,70,2012-09-12 19:53:00
4:53 PM,86.0,70.0,59,30.08,10.0,NE,18.4,-,N/A,,Mostly Cloudy,50,2012-09-12 20:53:00
5:53 PM,82.9,69.1,63,30.09,10.0,East,11.5,-,0.00,,Mostly Cloudy,80,2012-09-12 21:53:00
6:53 PM,78.1,72.0,81,30.09,10.0,NE,9.2,-,0.01,,Mostly Cloudy,50,2012-09-12 22:53:00
7:53 PM,79.0,71.1,77,30.09,10.0,NE,12.7,-,N/A,,Mostly Cloudy,50,2012-09-12 23:53:00
8:53 PM,78.1,70.0,76,30.10,10.0,ENE,13.8,-,N/A,,Mostly Cloudy,70,2012-09-13 00:53:00
9:53 PM,77.0,70.0,79,30.11,10.0,NE,9.2,-,N/A,,Partly Cloudy,40,2012-09-13 01:53:00
10:53 PM,77.0,71.1,82,30.12,10.0,NE,8.1,-,N/A,,Scattered Clouds,50,2012-09-13 02:53:00
11:53 PM,75.9,71.1,85,30.11,10.0,ENE,8.1,-,N/A,,Partly Cloudy,60,2012-09-13 03:53:00